Temperature
16 15 15 15 15 14 14 16 16 17 18 18 19 19 18 17 15 14 13 13 13 13 12 12 12 12 11 11 10 9 9 9 8 8 7 7 6 6 5 5 4 4 3 3
14 14 14 14 14 14 14 15 16 16 17 18 18 17 16 15 14 13 13 13 13 13 12 12 12 11 11 11 10 9 9 8 8 7 7 6 6 5 5 4 4 3 3 2
15 13 13 14 15 15 14 14 15 16 17 18 17 16 15 14 13 13 13 13 13 13 12 12 11 11 11 10 9 9 8 8 7 7 6 5 5 4 4 3 3 2 2 1
14 13 12 17 16 15 15 15 15 15 16 16 15 14 13 13 12 13 13 13 12 12 12 11 11 11 10 10 9 8 7 7 7 6 5 5 4 4 3 3 2 2 1 1
13 14 15 15 14 13 14 15 16 15 15 15 12 11 13 13 13 13 13 12 12 12 11 11 10 10 9 9 8 8 7 6 6 5 5 4 4 3 3 2 1 1 0 -0
12 12 13 16 15 13 14 15 16 14 14 13 11 14 15 13 13 13 12 12 11 11 10 10 10 9 9 8 8 7 6 6 5 4 4 3 3 2 2 1 1 0 -0 -1
13 13 15 16 12 12 14 16 15 13 13 12 12 14 13 13 12 12 12 11 11 10 10 9 9 8 8 7 7 6 5 5 4 4 3 3 2 2 1 0 -0 -1 -1 -1
13 12 13 13 11 13 16 15 14 13 13 12 12 12 12 12 11 11 11 10 10 9 9 8 8 7 7 6 6 5 4 4 3 3 2 2 1 1 0 -0 -1 -2 -2 -3
14 15 15 12 13 14 14 13 14 14 14 13 12 12 11 11 10 10 10 9 9 8 8 7 7 6 6 5 5 4 4 3 3 2 1 1 0 -0 -1 -1 -2 -3 -3 -4
12 13 13 12 12 13 13 13 13 13 13 13 12 12 11 10 10 9 9 8 8 7 7 6 6 5 5 4 4 3 3 2 2 1 1 0 -0 -1 -1 -2 -3 -3 -4 -4
12 13 12 12 12 13 13 13 13 13 12 12 12 11 10 10 9 8 8 7 7 6 6 5 5 4 4 3 3 2 2 1 1 0 -0 -1 -1 -2 -2 -3 -3 -4 -5 -5
14 14 14 14 14 13 13 13 12 12 11 11 11 10 10 9 8 7 7 6 6 5 5 4 4 3 3 2 2 1 1 0 -0 -1 -1 -2 -2 -3 -3 -4 -4 -4 -5 -6
14 13 13 13 13 12 12 12 11 11 11 10 10 9 8 8 7 6 6 5 5 4 4 3 3 2 2 1 1 0 -0 -1 -1 -2 -2 -3 -4 -4 -5 -5 -5 -5 -6 -6
12 12 11 11 11 11 11 11 10 10 9 9 8 8 7 7 6 5 5 4 4 3 3 2 2 1 1 0 -0 -1 -1 -2 -2 -3 -3 -4 -5 -5 -6 -6 -6 -6 -6 -7
11 11 10 11 10 10 9 9 8 8 8 7 7 6 6 5 5 4 4 3 3 2 2 1 1 1 0 -0 -1 -2 -2 -3 -3 -4 -4 -5 -6 -6 -7 -7 -7 -7 -7 -8
10 9 9 8 8 8 8 7 7 7 6 6 5 5 4 4 4 3 3 2 2 1 1 0 0 -0 -1 -1 -2 -3 -3 -4 -4 -5 -5 -6 -7 -7 -7 -8 -8 -8 -8 -8
8 7 7 7 7 7 6 6 6 6 5 4 4 4 3 3 2 2 2 1 1 0 0 -0 -1 -1 -2 -2 -3 -4 -4 -5 -5 -6 -6 -7 -7 -8 -8 -8 -8 -9 -9 -9
8 8 8 7 6 6 5 5 5 4 4 3 3 2 2 2 2 1 1 0 0 -0 -1 -1 -2 -2 -3 -3 -4 -5 -5 -6 -6 -7 -7 -8 -8 -8 -9 -9 -9 -9 -9 -10
6 6 6 5 5 5 4 4 3 3 3 2 2 2 1 1 1 0 -0 -1 -1 -1 -2 -2 -3 -3 -4 -4 -5 -6 -6 -7 -7 -8 -8 -8 -9 -9 -9 -10 -10 -10 -10 -10
5 4 4 4 4 4 3 3 2 2 2 1 1 1 0 0 -0 -1 -1 -1 -2 -2 -3 -3 -4 -4 -5 -5 -6 -7 -7 -7 -8 -8 -9 -9 -9 -10 -10 -10 -10 -11 -11 -11
3 3 3 3 2 2 2 2 1 1 1 0 0 -0 -0 -1 -1 -2 -2 -3 -3 -4 -4 -4 -5 -5 -6 -7 -7 -7 -8 -8 -9 -9 -9 -10 -10 -10 -11 -11 -11 -11 -12 -12
2 2 2 2 2 1 1 1 0 0 -0 -0 -1 -1 -1 -2 -2 -3 -3 -4 -4 -5 -5 -6 -6 -6 -7 -8 -8 -8 -9 -9 -9 -10 -10 -11 -11 -11 -11 -11 -12 -12 -12 -12
1 1 1 1 0 0 -0 -0 -1 -1 -1 -1 -2 -2 -3 -3 -3 -4 -5 -5 -5 -6 -6 -7 -7 -7 -8 -8 -9 -9 -9 -10 -10 -11 -11 -11 -11 -11 -12 -12 -12 -12 -12 -12
-0 -0 -0 -1 -1 -1 -1 -2 -2 -2 -2 -2 -3 -3 -4 -4 -4 -5 -5 -6 -6 -6 -7 -7 -8 -8 -9 -9 -9 -10 -10 -11 -11 -11 -11 -11 -12 -12 -12 -12 -12 -12 -12 -12
-1 -1 -1 -2 -2 -2 -2 -3 -3 -3 -3 -3 -4 -4 -4 -5 -5 -6 -6 -6 -7 -7 -8 -8 -8 -9 -9 -9 -10 -10 -11 -11 -11 -12 -12 -12 -12 -12 -12 -12 -13 -13 -13 -13
-2 -2 -2 -3 -3 -3 -3 -4 -4 -4 -4 -5 -5 -5 -5 -6 -6 -7 -7 -7 -8 -8 -8 -9 -9 -9 -10 -10 -10 -11 -11 -11 -11 -11 -11 -12 -12 -12 -12 -12 -12 -13 -13 -13
-3 -3 -3 -4 -4 -4 -4 -4 -5 -5 -5 -6 -6 -6 -6 -7 -7 -8 -8 -8 -9 -9 -9 -9 -10 -10 -10 -11 -11 -11 -11 -11 -11 -11 -12 -12 -12 -12 -12 -12 -12 -13 -13 -13
Wind_Speed
12 5 7 10 13 17 20 20 17 19 21 23 20 17 16 14 11 10 9 7 7 7 7 8 9 10 11 11 11 11 12 12 11 10 9 8 8 7 7 8 8 9 10 11
9 8 9 10 14 17 20 20 23 24 25 22 18 15 14 13 11 10 9 7 6 6 7 8 9 9 10 10 10 11 11 11 10 9 8 8 8 7 7 8 9 9 11 12
9 5 5 13 17 19 15 16 16 21 22 17 14 13 12 11 10 10 9 7 6 6 6 6 7 8 9 9 9 9 10 9 9 8 8 7 7 7 8 9 9 11 12 12
5 6 11 10 5 12 17 19 19 19 19 17 15 12 11 11 11 10 7 6 5 4 4 4 5 6 7 7 8 8 8 8 8 8 7 7 7 8 8 8 9 11 12 13
6 11 13 9 6 9 12 15 17 20 20 16 8 7 8 7 7 7 6 4 4 3 3 4 4 5 6 7 7 7 8 8 7 7 7 7 7 8 8 9 10 11 12 13
7 8 10 9 5 7 5 10 10 13 14 10 6 6 6 4 4 4 3 2 2 3 4 4 4 6 6 6 6 7 6 6 6 6 7 7 8 8 8 9 10 11 13 14
13 12 12 5 6 10 8 8 2 8 10 10 10 8 1 4 3 3 3 3 4 4 4 4 4 5 5 5 5 4 4 4 5 6 7 7 8 8 9 9 11 12 14 14
11 12 12 8 11 12 9 1 4 6 7 9 9 5 3 3 4 4 4 4 5 4 4 4 4 5 4 4 3 3 3 4 5 6 6 6 8 8 9 10 11 13 13 14
12 12 4 12 12 9 4 5 6 6 6 8 7 7 6 5 5 5 5 5 4 4 4 3 3 3 3 2 2 2 3 5 5 6 6 7 8 9 9 10 10 11 11 13
10 12 9 10 12 10 9 9 8 6 6 7 8 8 7 6 6 5 5 5 4 5 4 3 2 2 2 2 2 3 4 5 6 6 7 8 8 8 9 9 10 11 12 13
13 11 8 11 14 14 11 10 8 7 7 8 8 8 8 6 6 6 5 5 4 4 3 3 2 2 2 2 3 4 5 6 7 7 8 9 9 9 11 11 12 12 12 13
13 11 10 9 7 8 9 9 9 8 6 6 8 8 7 6 5 5 6 5 4 4 3 2 2 2 3 3 4 5 6 6 6 7 7 8 10 11 12 15 19 21 21 20
12 7 8 6 5 6 7 7 7 7 7 6 6 6 7 5 5 5 5 5 4 3 3 2 3 3 4 4 4 6 7 7 7 8 8 9 10 11 13 13 16 19 21 22
8 6 6 7 7 6 6 5 5 4 4 5 5 6 6 6 6 6 5 4 3 2 2 3 3 5 4 4 5 7 8 8 9 8 9 10 10 11 12 13 14 13 15 19
11 10 8 5 4 5 5 6 7 6 6 6 6 7 7 7 6 4 3 3 2 2 2 3 4 5 5 5 6 8 8 7 8 9 9 10 11 12 12 14 14 14 14 15
9 7 7 7 7 7 7 8 8 7 7 7 6 6 6 6 5 4 3 2 2 3 3 4 6 6 5 6 7 7 8 10 11 10 10 11 11 12 12 13 14 14 14 14
9 9 9 8 9 8 8 8 7 8 8 7 7 7 6 6 4 3 1 1 2 3 4 5 6 6 6 7 7 7 8 9 12 11 10 11 11 12 13 13 14 14 14 16
9 9 9 9 9 9 8 7 7 8 7 7 7 6 5 4 3 2 1 1 3 4 5 5 5 6 7 7 7 8 8 9 10 11 11 11 12 12 13 14 15 16 15 16
6 6 7 8 8 9 8 8 8 7 7 7 6 5 3 2 1 1 1 2 4 5 5 5 8 8 8 9 9 8 9 11 11 11 11 14 15 13 13 14 15 15 15 15
7 8 9 9 9 9 9 8 8 7 6 6 5 4 2 1 1 1 2 4 4 5 6 7 8 8 8 9 11 9 10 11 12 12 12 13 13 14 14 14 15 15 15 15
10 10 11 11 10 9 8 8 8 7 5 5 4 3 2 1 1 2 3 5 5 5 7 9 8 7 8 10 12 10 11 12 12 12 13 13 14 14 15 15 15 15 15 15
9 10 10 10 10 9 7 6 6 6 5 3 3 2 1 1 2 3 5 5 5 7 7 7 7 9 12 14 11 11 11 12 12 12 12 13 13 14 15 15 15 15 15 15
9 9 9 9 9 8 7 6 5 4 3 2 1 1 1 2 3 4 5 4 5 9 9 8 11 15 18 13 10 11 12 12 12 13 13 13 14 14 15 16 15 15 15 15
9 9 9 8 8 8 6 5 4 3 2 1 0 1 2 3 4 4 5 7 10 11 9 11 15 17 17 10 10 11 11 12 12 13 13 14 14 14 14 15 15 15 15 17
9 9 8 8 7 5 4 4 3 2 1 1 1 2 3 3 4 5 6 7 10 11 9 11 15 16 12 10 10 11 12 12 14 14 14 14 14 14 15 15 15 15 15 16
7 6 6 5 4 4 3 2 1 1 1 2 3 3 3 4 5 6 6 8 10 11 10 9 10 12 10 11 12 12 13 14 15 14 14 14 15 16 15 15 18 16 16 16
7 6 5 4 3 3 2 1 1 1 2 2 4 4 4 5 5 6 8 8 8 9 9 9 10 10 11 11 12 13 13 13 13 14 14 14 14 14 15 17 16 15 15 16
Wind_Direction
241 233 193 212 212 208 218 232 248 260 264 270 276 283 286 287 286 282 273 261 245 233 224 214 208 205 204 202 198 196 198 203 207 207 208 210 215 222 229 237 244 251 257 261
229 227 224 237 234 225 229 238 247 259 267 271 279 280 277 277 276 272 270 261 250 238 228 217 210 205 202 201 197 195 202 207 206 205 207 213 220 227 236 243 249 255 259 264
231 204 216 246 234 226 226 227 236 249 260 272 274 271 272 273 268 263 264 259 247 236 227 218 210 203 200 197 192 197 205 207 204 206 210 217 224 234 242 250 256 260 264 268
213 191 236 253 217 224 232 241 237 247 260 266 270 276 273 264 259 258 257 252 242 231 220 212 201 194 189 184 188 196 205 207 207 208 215 222 231 242 251 257 261 265 270 273
204 236 255 258 223 202 216 250 243 244 255 263 267 274 260 239 235 244 253 246 238 221 204 188 180 174 171 178 186 197 207 211 211 214 222 230 241 251 259 264 267 270 274 275
205 226 244 250 189 172 192 260 247 231 242 241 203 242 257 190 197 214 216 205 185 168 161 160 158 162 171 181 192 206 213 217 220 225 233 242 251 260 266 267 271 276 275 276
219 235 254 242 147 155 210 260 196 207 220 207 208 237 215 148 173 183 179 167 157 152 151 150 153 163 177 189 208 215 217 224 232 238 245 253 260 264 269 273 275 276 279 279
213 229 243 175 158 194 232 229 196 213 216 214 219 226 209 201 192 178 169 161 156 150 144 143 156 169 185 206 214 211 221 235 246 253 258 258 264 270 273 275 278 280 283 285
208 227 249 173 198 216 230 222 221 221 220 211 215 222 217 209 199 188 176 165 159 154 148 150 166 183 202 210 204 218 237 251 260 265 266 265 268 273 276 276 277 281 284 286
231 245 240 224 231 239 234 237 239 233 223 208 217 216 210 203 195 184 174 168 162 162 168 172 177 196 210 211 218 236 254 265 269 271 274 273 271 269 271 274 277 279 282 285
235 248 255 246 235 237 237 238 238 234 227 220 213 211 205 197 191 182 171 165 168 176 182 187 191 213 226 230 235 252 264 270 273 273 274 277 275 271 271 271 272 277 281 283
235 234 227 238 227 225 223 226 221 213 215 211 204 201 193 188 180 170 166 163 169 178 185 194 213 240 252 249 250 258 268 274 276 277 278 278 282 283 268 267 276 275 276 279
248 242 234 244 240 222 223 224 215 207 203 196 188 180 174 168 160 157 159 166 176 182 193 214 241 259 265 263 259 261 268 275 279 278 279 282 284 286 290 287 278 278 279 282
225 212 232 232 231 217 206 190 173 164 165 163 157 152 150 146 147 154 161 167 170 179 209 238 256 269 278 274 269 270 273 275 276 279 281 283 284 285 287 291 295 293 289 287
222 224 228 219 199 181 167 155 151 153 148 143 144 146 148 148 150 151 147 146 162 201 239 257 268 279 288 282 277 278 279 279 281 283 283 283 284 285 286 288 290 293 295 294
208 209 206 203 198 188 177 174 171 168 159 151 147 144 141 137 135 134 141 158 198 247 265 271 276 286 291 285 283 282 280 279 283 286 287 286 286 286 288 289 290 291 292 295
190 204 203 203 198 190 185 182 173 162 155 151 146 137 132 131 132 138 151 219 263 271 275 276 281 289 287 283 284 285 286 285 286 286 284 285 286 286 287 288 289 290 291 293
215 212 200 192 186 177 166 157 152 150 148 143 138 138 140 145 155 173 230 283 286 284 281 283 287 291 288 288 289 288 287 286 287 287 287 287 288 288 289 289 290 291 292 294
179 170 164 160 157 152 146 143 140 136 134 136 138 138 139 145 158 208 264 276 280 287 294 299 298 295 292 293 296 291 288 288 288 288 288 290 291 289 288 289 290 291 292 293
134 130 129 126 126 129 131 131 129 128 130 133 131 131 136 148 190 257 273 275 275 284 295 297 298 295 295 295 296 291 289 289 289 290 291 290 290 290 290 290 290 291 291 291
128 126 124 122 118 116 121 127 129 128 127 132 138 145 159 220 264 271 277 285 292 299 301 298 297 296 299 299 298 293 291 291 291 291 291 291 291 291 290 290 290 290 290 290
125 124 123 122 118 113 110 113 117 121 122 121 120 128 159 262 282 283 275 277 293 304 305 297 296 298 303 303 298 295 293 292 291 291 290 290 290 290 290 290 290 289 289 288
119 118 117 116 116 113 107 105 108 114 118 122 135 181 260 279 282 285 294 296 302 305 306 297 299 303 306 306 298 295 293 292 291 290 290 290 289 289 289 289 289 289 288 288
112 110 109 110 111 110 106 98 91 89 91 84 280 277 284 291 293 287 289 298 305 305 301 298 302 305 309 304 297 294 293 292 292 291 291 290 289 289 289 289 289 289 288 288
110 110 112 114 111 108 107 101 90 81 55 3 322 309 301 294 291 299 301 300 304 306 302 302 304 307 306 297 295 294 293 290 290 292 291 291 291 291 290 289 289 289 289 288
109 108 106 103 104 106 108 104 90 36 346 325 320 317 313 308 302 301 301 302 302 303 304 301 302 302 300 297 295 294 293 294 293 292 290 291 290 290 289 289 290 289 288 287
103 102 101 96 88 87 85 77 37 332 320 312 310 309 310 310 307 308 306 304 304 303 302 301 300 299 298 297 297 295 294 293 292 291 291 291 290 290 290 290 290 289 289 288
Height
1489 1493 1496 1496 1498 1502 1501 1495 1493 1484 1481 1475 1474 1476 1476 1476 1476 1475 1474 1472 1471 1471 1471 1472 1472 1473 1475 1477 1479 1481 1483 1485 1486 1488 1489 1490 1490 1490 1490 1489 1487 1485 1483 1481
1492 1493 1495 1495 1492 1493 1493 1490 1486 1482 1476 1470 1471 1473 1472 1472 1471 1470 1469 1468 1467 1467 1467 1467 1468 1469 1470 1472 1474 1475 1477 1479 1481 1482 1483 1484 1484 1484 1483 1482 1480 1478 1476 1473
1487 1492 1495 1490 1481 1482 1483 1480 1478 1476 1468 1466 1467 1468 1468 1467 1467 1466 1465 1464 1463 1463 1463 1464 1464 1465 1466 1468 1469 1471 1472 1474 1475 1476 1477 1478 1478 1477 1476 1475 1473 1471 1468 1465
1486 1493 1496 1469 1469 1470 1472 1469 1470 1467 1463 1463 1464 1464 1463 1462 1462 1461 1461 1460 1460 1460 1460 1461 1461 1462 1463 1464 1465 1466 1467 1468 1469 1470 1471 1472 1471 1471 1470 1468 1466 1463 1460 1457
1486 1480 1472 1467 1467 1468 1469 1464 1460 1460 1458 1459 1461 1461 1458 1457 1457 1457 1457 1457 1457 1457 1457 1458 1458 1459 1459 1460 1461 1462 1462 1463 1464 1465 1465 1465 1465 1464 1463 1461 1458 1455 1452 1449
1480 1480 1474 1457 1459 1462 1466 1461 1452 1453 1453 1455 1458 1457 1453 1453 1453 1454 1454 1454 1454 1454 1454 1455 1455 1456 1456 1457 1457 1458 1458 1459 1459 1460 1460 1459 1459 1457 1456 1453 1450 1447 1443 1440
1471 1470 1457 1452 1458 1462 1464 1451 1448 1448 1449 1450 1452 1450 1450 1450 1450 1451 1451 1451 1451 1451 1452 1452 1453 1453 1453 1454 1454 1455 1455 1455 1455 1455 1454 1453 1452 1451 1448 1446 1442 1439 1435 1431
1463 1465 1458 1450 1455 1453 1445 1444 1444 1444 1445 1446 1446 1446 1447 1447 1447 1448 1448 1448 1448 1449 1449 1450 1450 1451 1451 1451 1451 1451 1451 1450 1450 1449 1448 1447 1445 1443 1441 1438 1434 1430 1426 1422
1446 1442 1439 1441 1441 1441 1441 1441 1441 1441 1441 1442 1442 1442 1443 1443 1444 1444 1445 1445 1446 1446 1447 1447 1448 1448 1448 1448 1448 1447 1446 1446 1445 1444 1442 1441 1439 1436 1433 1430 1426 1422 1418 1413
1440 1436 1436 1437 1436 1436 1437 1437 1437 1438 1438 1438 1438 1438 1439 1440 1440 1441 1441 1442 1443 1444 1444 1445 1445 1445 1445 1445 1444 1443 1442 1441 1439 1438 1436 1434 1431 1429 1426 1422 1418 1414 1410 1405
1432 1431 1432 1430 1430 1430 1431 1431 1432 1433 1433 1434 1434 1434 1435 1436 1437 1437 1438 1439 1440 1441 1441 1442 1442 1442 1441 1441 1440 1438 1437 1435 1433 1431 1429 1426 1424 1421 1417 1414 1411 1407 1402 1397
1421 1422 1424 1423 1424 1425 1425 1426 1427 1428 1428 1429 1430 1430 1431 1432 1433 1434 1435 1436 1437 1438 1438 1438 1438 1438 1437 1436 1435 1433 1431 1429 1427 1425 1422 1419 1415 1411 1407 1405 1401 1397 1393 1389
1415 1416 1417 1417 1419 1419 1420 1421 1422 1423 1423 1424 1425 1426 1427 1428 1430 1431 1432 1433 1434 1434 1435 1435 1435 1434 1433 1432 1430 1428 1425 1423 1421 1418 1415 1411 1407 1403 1398 1394 1391 1387 1383 1379
1410 1411 1412 1412 1413 1414 1415 1416 1417 1418 1419 1420 1421 1422 1424 1425 1426 1428 1429 1430 1431 1431 1431 1431 1430 1429 1428 1426 1424 1422 1419 1417 1414 1411 1407 1403 1400 1395 1391 1386 1381 1376 1373 1370
1403 1405 1406 1406 1407 1409 1410 1411 1412 1413 1415 1416 1418 1419 1420 1422 1423 1425 1426 1427 1427 1428 1427 1427 1425 1424 1422 1420 1418 1415 1412 1410 1407 1403 1400 1396 1392 1388 1383 1379 1374 1368 1363 1360
1396 1398 1399 1401 1402 1403 1405 1406 1408 1409 1411 1413 1415 1416 1418 1419 1421 1422 1423 1424 1424 1424 1423 1422 1420 1418 1416 1414 1411 1408 1405 1403 1400 1396 1392 1388 1384 1380 1376 1371 1366 1361 1356 1351
1390 1391 1393 1395 1397 1399 1401 1403 1405 1406 1408 1410 1412 1414 1415 1417 1418 1419 1420 1420 1420 1419 1418 1417 1414 1412 1410 1408 1405 1402 1398 1395 1392 1388 1384 1380 1376 1372 1367 1363 1358 1353 1348 1344
1384 1386 1388 1390 1392 1394 1397 1399 1402 1404 1406 1408 1410 1412 1413 1415 1415 1416 1416 1416 1415 1414 1413 1411 1409 1406 1404 1401 1398 1395 1391 1388 1384 1380 1376 1372 1368 1364 1360 1355 1350 1345 1339 1335
1379 1381 1384 1386 1389 1391 1394 1397 1400 1402 1405 1407 1408 1410 1411 1412 1413 1413 1412 1411 1410 1409 1407 1405 1403 1400 1397 1395 1392 1388 1384 1380 1377 1373 1369 1364 1360 1356 1351 1346 1341 1336 1331 1326
1376 1379 1381 1384 1387 1390 1393 1395 1398 1401 1403 1405 1407 1408 1409 1409 1409 1409 1408 1407 1405 1403 1401 1399 1396 1394 1391 1388 1385 1381 1377 1373 1369 1365 1361 1356 1352 1347 1342 1337 1332 1327 1322 1318
1375 1377 1380 1383 1386 1389 1392 1395 1397 1399 1401 1403 1404 1405 1405 1405 1405 1404 1403 1401 1400 1398 1395 1393 1390 1387 1384 1381 1378 1374 1370 1366 1362 1357 1352 1348 1343 1338 1333 1328 1323 1318 1314 1309
1375 1377 1380 1383 1386 1389 1392 1394 1396 1398 1400 1401 1402 1402 1402 1401 1401 1399 1398 1397 1394 1392 1389 1386 1384 1380 1377 1374 1370 1366 1362 1358 1353 1349 1344 1339 1334 1329 1324 1319 1314 1309 1305 1300
1375 1378 1381 1384 1386 1389 1391 1394 1396 1397 1398 1398 1399 1399 1398 1397 1396 1394 1393 1391 1389 1386 1383 1380 1377 1374 1370 1367 1362 1358 1354 1349 1345 1340 1335 1330 1325 1320 1315 1310 1305 1300 1295 1291
1377 1380 1382 1385 1387 1389 1391 1393 1394 1395 1396 1396 1396 1395 1394 1392 1391 1390 1387 1385 1383 1380 1376 1373 1370 1367 1363 1359 1354 1350 1346 1341 1336 1332 1327 1322 1317 1312 1307 1301 1296 1291 1286 1281
1379 1381 1383 1385 1387 1389 1390 1391 1392 1393 1393 1393 1392 1391 1390 1388 1387 1384 1382 1379 1376 1373 1369 1366 1363 1359 1355 1351 1347 1342 1338 1333 1329 1324 1319 1313 1308 1303 1298 1292 1287 1282 1277 1272
1380 1382 1384 1386 1387 1388 1389 1390 1390 1390 1390 1389 1388 1387 1386 1384 1381 1379 1376 1373 1370 1367 1363 1359 1356 1352 1348 1344 1339 1335 1330 1325 1320 1315 1310 1305 1299 1294 1289 1283 1278 1273 1267 1262
1381 1383 1384 1386 1387 1387 1388 1388 1388 1388 1387 1386 1384 1383 1381 1379 1376 1374 1371 1367 1364 1361 1357 1353 1349 1345 1341 1337 1332 1327 1322 1317 1312 1307 1301 1296 1291 1285 1280 1274 1269 1263 1258 1252